KJ4AJP Weather Reports


time (UTC)temp
C
wind
direction
speed
KPH
gust
KPH
rain 1hr
cm
rain 24hr
cm
rain mn
cm
humidity
%
barometer
mb
20260906201902 36 78 4.8 6.4 0.00 0.00 0.00 46 1011.4
20260906201356 36 38 1.6 4.8 0.00 0.00 0.00 47 1011.4
20260906200852 36 42 3.2 4.8 0.00 0.00 0.00 48 1011.4
20260906200348 36 47 4.8 4.8 0.00 0.00 0.00 47 1011.3
20260906195848 36 77 6.4 6.4 0.00 0.00 0.00 50 1011.4
20260906195344 36 58 0.0 0.0 0.00 0.00 0.00 51 1011.5
20260906194840 36 50 1.6 1.6 0.00 0.00 0.00 52 1011.7
20260906194335 35 41 1.6 3.2 0.00 0.00 0.00 51 1011.6
20260906193830 36 38 3.2 3.2 0.00 0.00 0.00 48 1011.7
20260906193326 36 77 1.6 1.6 0.00 0.00 0.00 52 1011.4
20260906192822 36 19 3.2 3.2 0.00 0.00 0.00 51 1011.7
20260906192321 36 58 1.6 1.6 0.00 0.00 0.00 52 1011.6
20260906191820 37 47 3.2 3.2 0.00 0.00 0.00 52 1011.8
20260906191316 36 20 3.2 4.8 0.00 0.00 0.00 51 1011.7
20260906190816 36 56 0.0 1.6 0.00 0.00 0.00 55 1011.8
20260906190315 36 71 3.2 3.2 0.00 0.00 0.00 53 1011.8
20260906185814 36 45 4.8 4.8 0.00 0.00 0.00 50 1011.9
20260906185314 36 48 1.6 3.2 0.00 0.00 0.00 50 1012.1
20260906184809 36 50 0.0 1.6 0.00 0.00 0.00 52 1012.2
20260906184303 36 52 1.6 3.2 0.00 0.00 0.00 51 1012.2
20260906183759 36 43 3.2 3.2 0.00 0.00 0.00 50 1012.3
20260906183255 36 50 1.6 3.2 0.00 0.00 0.00 52 1012.4
20260906182755 36 49 3.2 3.2 0.00 0.00 0.00 52 1012.4
20260906182251 36 46 1.6 1.6 0.00 0.00 0.00 52 1012.4
20260906181746 36 188 1.6 3.2 0.00 0.00 0.00 55 1012.5
20260906181243 36 54 3.2 3.2 0.00 0.00 0.00 54 1012.5
20260906180743 36 45 1.6 1.6 0.00 0.00 0.00 55 1012.6
20260906180238 36 40 1.6 1.6 0.00 0.00 0.00 54 1012.6
20260906175735 36 355 4.8 9.7 0.00 0.00 0.00 52 1012.6
20260906175231 36 60 0.0 1.6 0.00 0.00 0.00 54 1012.7
20260906174729 36 97 3.2 4.8 0.00 0.00 0.00 54 1012.6
20260906174224 36 45 1.6 1.6 0.00 0.00 0.00 54 1012.9
20260906173719 35 253 1.6 3.2 0.00 0.00 0.00 60 1012.8
20260906173215 35 46 1.6 1.6 0.00 0.00 0.00 56 1012.8
20260906172714 35 68 1.6 3.2 0.00 0.00 0.00 58 1012.9
20260906172209 36 51 0.0 0.0 0.00 0.00 0.00 55 1012.9
20260906171704 35 46 0.0 1.6 0.00 0.00 0.00 58 1013.0
20260906171159 35 60 0.0 1.6 0.00 0.00 0.00 57 1013.0
20260906170656 35 321 3.2 3.2 0.00 0.00 0.00 57 1012.9
20260906170155 35 58 0.0 0.0 0.00 0.00 0.00 60 1013.1
20260906165651 35 75 3.2 3.2 0.00 0.00 0.00 58 1013.1
20260906165146 35 97 1.6 3.2 0.00 0.00 0.00 57 1013.2
20260906164645 35 44 3.2 3.2 0.00 0.00 0.00 57 1013.2
20260906164141 35 51 0.0 1.6 0.00 0.00 0.00 58 1013.2
20260906163637 35 52 0.0 0.0 0.00 0.00 0.00 57 1013.3
20260906163133 35 57 0.0 0.0 0.00 0.00 0.00 58 1013.6
20260906162629 34 65 1.6 1.6 0.00 0.00 0.00 63 1013.4
20260906162124 34 61 1.6 1.6 0.00 0.00 0.00 59 1013.6
20260906161624 35 48 0.0 1.6 0.00 0.00 0.00 58 1013.6
20260906161123 34 53 0.0 1.6 0.00 0.00 0.00 58 1013.6
20260906160621 33 39 0.0 1.6 0.00 0.00 0.00 59 1013.6
20260906160120 33 36 1.6 1.6 0.00 0.00 0.00 59 1013.8
20260906155618 33 53 0.0 1.6 0.00 0.00 0.00 58 1013.6
20260906155114 34 49 1.6 1.6 0.00 0.00 0.00 57 1013.6
20260906154609 34 70 0.0 1.6 0.00 0.00 0.00 58 1013.5
20260906154109 33 55 1.6 3.2 0.00 0.00 0.00 59 1013.7
20260906153608 33 64 0.0 1.6 0.00 0.00 0.00 57 1013.5
20260906153103 33 75 1.6 3.2 0.00 0.00 0.00 59 1013.5
20260906152557 33 55 0.0 0.0 0.00 0.00 0.00 59 1013.6
20260906152057 32 49 0.0 0.0 0.00 0.00 0.00 61 1013.5
20260906151552 32 71 0.0 1.6 0.00 0.00 0.00 62 1013.6
20260906151048 32 44 1.6 1.6 0.00 0.00 0.00 61 1013.5
20260906150543 33 68 1.6 1.6 0.00 0.00 0.00 61 1013.4
20260906150038 33 75 0.0 1.6 0.00 0.00 0.00 60 1013.5
20260906145537 32 53 0.0 0.0 0.00 0.00 0.00 61 1013.5
20260906145032 32 53 0.0 0.0 0.00 0.00 0.00 63 1013.6
20260906144526 32 71 0.0 0.0 0.00 0.00 0.00 62 1013.5
20260906144021 31 66 0.0 0.0 0.00 0.00 0.00 65 1013.5
20260906143516 31 61 1.6 1.6 0.00 0.00 0.00 65 1013.5
20260906143014 31 51 1.6 1.6 0.00 0.00 0.00 65 1013.3
20260906142513 31 61 0.0 0.0 0.00 0.00 0.00 67 1013.5
20260906142009 31 54 0.0 1.6 0.00 0.00 0.00 67 1013.7
20260906141507 30 62 0.0 0.0 0.00 0.00 0.00 71 1013.8
20260906141002 30 41 1.6 1.6 0.00 0.00 0.00 69 1013.9
20260906140456 30 71 1.6 3.2 0.00 0.00 0.00 69 1013.6
20260906135954 30 59 0.0 0.0 0.00 0.00 0.00 70 1013.5
20260906135453 30 53 0.0 0.0 0.00 0.00 0.00 72 1013.7
20260906134949 29 69 0.0 0.0 0.00 0.00 0.00 73 1013.6
20260906134445 29 53 0.0 0.0 0.00 0.00 0.00 74 1013.7
20260906133944 28 51 1.6 1.6 0.00 0.00 0.00 75 1013.6
20260906133440 28 47 0.0 0.0 0.00 0.00 0.00 75 1013.8
20260906132936 28 47 0.0 0.0 0.00 0.00 0.00 76 1013.7
20260906132431 28 51 0.0 0.0 0.00 0.00 0.00 77 1013.7
20260906131926 28 50 0.0 0.0 0.00 0.00 0.00 79 1013.8
20260906131422 28 50 0.0 0.0 0.00 0.00 0.00 80 1013.7
20260906130917 27 48 0.0 0.0 0.00 0.00 0.00 82 1013.8
20260906130417 27 48 0.0 0.0 0.00 0.00 0.00 84 1013.8
20260906125916 26 48 0.0 0.0 0.00 0.00 0.00 84 1013.8
20260906125414 26 48 0.0 0.0 0.00 0.00 0.00 85 1013.7
20260906124908 26 48 0.0 0.0 0.00 0.00 0.00 86 1013.6
20260906124404 25 48 0.0 0.0 0.00 0.00 0.00 89 1013.6
20260906123904 25 48 0.0 0.0 0.00 0.00 0.00 91 1013.5
20260906123358 24 48 0.0 0.0 0.00 0.00 0.00 94 1013.4
20260906122858 24 48 0.0 0.0 0.00 0.00 0.00 94 1013.2
20260906122353 23 48 0.0 0.0 0.00 0.00 0.00 94 1013.1
20260906121850 23 48 0.0 0.0 0.00 0.00 0.00 94 1013.4
20260906121345 23 48 0.0 0.0 0.00 0.00 0.00 95 1013.3
20260906120842 23 48 0.0 0.0 0.00 0.00 0.00 95 1013.1
20260906120337 23 48 0.0 0.0 0.00 0.00 0.00 95 1012.8
20260906115833 23 48 0.0 0.0 0.00 0.00 0.00 95 1013.0
20260906115328 23 48 0.0 0.0 0.00 0.00 0.00 95 1012.9
20260906114827 23 48 0.0 0.0 0.00 0.00 0.00 96 1012.9
20260906114323 23 48 0.0 0.0 0.00 0.00 0.00 96 1012.8
20260906113818 23 48 0.0 0.0 0.00 0.00 0.00 96 1012.7
20260906113317 23 48 0.0 0.0 0.00 0.00 0.00 96 1012.6
20260906112813 23 48 0.0 0.0 0.00 0.00 0.00 96 1012.5
20260906112309 23 48 0.0 0.0 0.00 0.00 0.00 96 1012.4
20260906111808 23 48 0.0 0.0 0.00 0.00 0.00 96 1012.4
20260906111307 23 48 0.0 0.0 0.00 0.00 0.00 96 1012.3
20260906110803 23 48 0.0 0.0 0.00 0.00 0.00 96 1012.3
20260906110259 23 48 0.0 0.0 0.00 0.00 0.00 96 1012.2
20260906105758 23 48 0.0 0.0 0.00 0.00 0.00 96 1012.1
20260906105253 23 48 0.0 0.0 0.00 0.00 0.00 95 1012.2
20260906104749 23 48 0.0 0.0 0.00 0.00 0.00 95 1012.2
20260906104247 23 48 0.0 0.0 0.00 0.00 0.00 95 1012.2
20260906103746 23 48 0.0 0.0 0.00 0.00 0.00 95 1012.1
20260906103240 23 48 0.0 0.0 0.00 0.00 0.00 95 1012.0
20260906102736 23 48 0.0 0.0 0.00 0.00 0.00 95 1012.0
20260906102234 23 48 0.0 0.0 0.00 0.00 0.00 95 1011.8
20260906101730 23 48 0.0 0.0 0.00 0.00 0.00 95 1011.7
20260906101225 23 48 0.0 0.0 0.00 0.00 0.00 94 1011.6
20260906100720 23 48 0.0 0.0 0.00 0.00 0.00 94 1011.5
20260906100215 23 48 0.0 0.0 0.00 0.00 0.00 94 1011.5
20260906095714 23 48 0.0 0.0 0.00 0.00 0.00 94 1011.6
20260906095210 23 48 0.0 0.0 0.00 0.00 0.00 93 1011.3
20260906094708 23 48 0.0 0.0 0.00 0.00 0.00 94 1011.4
20260906094204 23 48 0.0 0.0 0.00 0.00 0.00 94 1011.8
20260906093700 23 48 0.0 0.0 0.00 0.00 0.00 93 1011.5
20260906093155 24 48 0.0 0.0 0.00 0.00 0.00 93 1011.9
20260906092651 24 48 0.0 0.0 0.00 0.00 0.00 93 1011.5
20260906092145 24 48 0.0 0.0 0.00 0.00 0.00 93 1011.7
20260906091642 24 47 0.0 0.0 0.00 0.00 0.00 93 1011.7
20260906091138 24 49 0.0 0.0 0.00 0.00 0.00 93 1011.6
20260906090633 24 49 0.0 0.0 0.00 0.00 0.00 93 1011.7
20260906090133 24 49 0.0 0.0 0.00 0.00 0.00 93 1011.7
20260906085631 24 48 0.0 0.0 0.00 0.00 0.00 93 1011.7
20260906085126 24 48 0.0 0.0 0.00 0.00 0.00 94 1011.7
20260906084626 24 48 0.0 0.0 0.00 0.00 0.00 93 1011.7
20260906084125 24 48 0.0 0.0 0.00 0.00 0.00 93 1011.6
20260906083621 24 48 0.0 0.0 0.00 0.00 0.00 93 1011.5
20260906083121 24 48 0.0 0.0 0.00 0.00 0.00 93 1011.5
20260906082616 25 48 0.0 0.0 0.00 0.00 0.00 93 1011.4
20260906082112 25 48 0.0 0.0 0.00 0.00 0.00 93 1011.6
20260906081608 25 48 0.0 0.0 0.00 0.00 0.00 93 1011.2
20260906081102 25 48 0.0 0.0 0.00 0.00 0.00 92 1011.5
20260906080559 25 48 0.0 0.0 0.00 0.00 0.00 92 1011.5
20260906080055 25 48 0.0 0.0 0.00 0.00 0.00 93 1011.5
20260906075555 25 48 0.0 0.0 0.00 0.00 0.00 93 1011.6
20260906075050 25 48 0.0 0.0 0.00 0.00 0.00 92 1011.5
20260906074544 25 48 0.0 0.0 0.00 0.00 0.00 92 1011.4
20260906074043 25 48 0.0 0.0 0.00 0.00 0.00 92 1011.5
20260906073538 25 48 0.0 0.0 0.00 0.00 0.00 92 1011.6
20260906073034 25 48 0.0 0.0 0.00 0.00 0.00 92 1011.4
20260906072529 25 48 0.0 0.0 0.00 0.00 0.00 91 1011.4
20260906072025 25 49 0.0 0.0 0.00 0.00 0.00 91 1011.3
20260906071521 25 49 0.0 0.0 0.00 0.00 0.00 92 1011.2
20260906071016 25 49 0.0 0.0 0.00 0.00 0.00 92 1011.3
20260906070513 25 49 0.0 0.0 0.00 0.00 0.00 92 1011.2
20260906070008 25 49 0.0 0.0 0.00 0.00 0.00 92 1011.1
20260906065507 25 49 0.0 0.0 0.00 0.00 0.00 92 1011.3
20260906065003 25 49 0.0 0.0 0.00 0.00 0.00 92 1011.2
20260906064459 25 49 0.0 0.0 0.00 0.00 0.00 92 1011.2
20260906063953 25 49 0.0 0.0 0.00 0.00 0.00 92 1011.3
20260906063449 25 49 0.0 0.0 0.00 0.00 0.00 92 1011.6
20260906062949 25 49 0.0 0.0 0.00 0.00 0.00 92 1011.7
20260906062444 25 49 0.0 0.0 0.00 0.00 0.00 92 1011.8
20260906061939 25 49 0.0 0.0 0.00 0.00 0.00 91 1011.9
20260906061435 25 49 0.0 0.0 0.00 0.00 0.00 91 1011.7
20260906060929 25 49 0.0 0.0 0.00 0.00 0.00 90 1011.7
20260906060427 25 49 0.0 0.0 0.00 0.00 0.00 90 1011.7
20260906055923 25 49 0.0 0.0 0.00 0.00 0.00 90 1011.9
20260906055419 25 49 0.0 0.0 0.00 0.00 0.00 90 1011.9
20260906054914 25 49 0.0 0.0 0.00 0.00 0.00 90 1011.9
20260906054408 25 49 0.0 0.0 0.00 0.00 0.00 90 1012.0
20260906053904 25 49 0.0 0.0 0.00 0.00 0.00 90 1012.1
20260906053400 25 49 0.0 0.0 0.00 0.00 0.00 90 1012.0
20260906052856 25 49 0.0 0.0 0.00 0.00 0.00 90 1011.9
20260906052352 25 49 0.0 0.0 0.00 0.00 0.00 89 1011.9
20260906051849 25 49 0.0 0.0 0.00 0.00 0.00 89 1011.9
20260906051348 25 49 0.0 0.0 0.00 0.00 0.00 88 1012.0
20260906050844 25 49 0.0 0.0 0.00 0.00 0.00 88 1011.9
20260906050339 26 49 0.0 0.0 0.00 0.00 0.00 87 1011.9
20260906045838 26 49 0.0 0.0 0.00 0.00 0.00 86 1011.9
20260906045332 26 49 0.0 0.0 0.00 0.00 0.00 86 1011.9
20260906044829 26 48 0.0 0.0 0.00 0.00 0.00 86 1011.9
20260906044328 26 49 0.0 0.0 0.00 0.00 0.00 86 1011.9
20260906043826 26 50 0.0 0.0 0.00 0.00 0.00 86 1012.1
20260906043320 26 50 0.0 0.0 0.00 0.00 0.00 86 1011.9
20260906042820 26 50 0.0 0.0 0.00 0.00 0.00 86 1012.0
20260906042319 26 50 0.0 0.0 0.00 0.00 0.00 86 1011.7
20260906041815 26 50 0.0 0.0 0.00 0.00 0.00 85 1011.7
20260906041310 26 49 1.6 1.6 0.00 0.00 0.00 85 1011.9
20260906040805 26 55 0.0 0.0 0.00 0.00 0.00 84 1012.0
20260906040300 26 55 0.0 0.0 0.00 0.00 0.00 84 1011.7
20260906035756 26 55 0.0 0.0 0.00 0.00 0.00 84 1011.8
20260906035252 26 55 0.0 0.0 0.00 0.00 0.00 83 1011.8
20260906034751 26 55 0.0 0.0 0.00 0.00 0.00 83 1011.6
20260906034246 26 55 0.0 0.0 0.00 0.00 0.00 82 1011.8
20260906033742 26 55 0.0 0.0 0.00 0.00 0.00 82 1011.9
20260906033241 26 54 0.0 0.0 0.00 0.00 0.00 82 1011.7
20260906032738 26 55 0.0 0.0 0.00 0.00 0.00 82 1011.7
20260906032238 26 55 0.0 0.0 0.00 0.00 0.00 81 1011.7
20260906031733 26 55 0.0 0.0 0.00 0.00 0.00 81 1011.8
20260906031229 27 55 0.0 0.0 0.00 0.00 0.00 81 1011.5
20260906030728 27 55 0.0 0.0 0.00 0.00 0.00 81 1011.5
20260906030224 27 55 0.0 0.0 0.00 0.00 0.00 79 1011.5
20260906025723 27 55 0.0 0.0 0.00 0.00 0.00 79 1011.4
20260906025218 27 55 0.0 0.0 0.00 0.00 0.00 79 1011.1
20260906024717 27 55 0.0 0.0 0.00 0.00 0.00 79 1011.7
20260906024216 27 55 0.0 0.0 0.00 0.00 0.00 78 1011.4
20260906023712 27 55 0.0 0.0 0.00 0.00 0.00 77 1011.3
20260906023213 27 55 0.0 0.0 0.00 0.00 0.00 77 1011.4
20260906022708 27 55 0.0 0.0 0.00 0.00 0.00 77 1011.4
20260906022203 27 55 0.0 0.0 0.00 0.00 0.00 75 1011.4
20260906021659 28 55 0.0 0.0 0.00 0.00 0.00 75 1011.1
20260906021158 28 55 0.0 0.0 0.00 0.00 0.00 74 1011.1
20260906020653 27 55 0.0 0.0 0.00 0.00 0.00 75 1011.2
20260906020148 28 55 0.0 0.0 0.00 0.00 0.00 76 1011.0
20260906015648 28 55 0.0 0.0 0.00 0.00 0.00 75 1011.1
20260906015147 28 55 0.0 0.0 0.00 0.00 0.00 74 1010.9
20260906014647 28 55 0.0 0.0 0.00 0.00 0.00 74 1011.0
20260906014143 28 55 0.0 0.0 0.00 0.00 0.00 73 1010.8
20260906013638 28 55 0.0 0.0 0.00 0.00 0.00 72 1010.8
20260906013134 28 55 0.0 0.0 0.00 0.00 0.00 71 1010.7
20260906012633 28 55 0.0 0.0 0.00 0.00 0.00 71 1010.7
20260906012128 29 55 0.0 0.0 0.00 0.00 0.00 71 1010.6
20260906011624 29 55 0.0 0.0 0.00 0.00 0.00 70 1010.7
20260906011124 30 55 0.0 0.0 0.00 0.00 0.00 69 1010.6
20260906010620 30 55 0.0 0.0 0.00 0.00 0.00 67 1010.8
20260906010116 30 55 0.0 0.0 0.00 0.00 0.00 65 1010.6
20260906005615 30 55 0.0 0.0 0.00 0.00 0.00 64 1010.7
20260906005115 30 55 0.0 0.0 0.00 0.00 0.00 63 1010.5
20260906004614 30 55 0.0 0.0 0.00 0.00 0.00 62 1010.3
20260906004109 30 55 0.0 0.0 0.00 0.00 0.00 62 1010.3
20260906003604 31 55 0.0 0.0 0.00 0.00 0.00 61 1010.3
20260906003101 31 55 0.0 0.0 0.00 0.00 0.00 61 1010.4
20260906002601 31 55 0.0 0.0 0.00 0.00 0.00 61 1010.5
20260906002055 31 55 0.0 0.0 0.00 0.00 0.00 61 1010.5
20260906001550 31 55 0.0 0.0 0.00 0.00 0.00 60 1010.6
20260906001045 32 55 0.0 0.0 0.00 0.00 0.00 61 1010.6
20260906000541 32 55 0.0 0.0 0.00 0.00 0.00 60 1010.8
20260906000036 32 55 0.0 0.0 0.00 0.00 0.00 59 1010.7
20260905235536 32 55 0.0 0.0 0.00 0.00 0.00 59 1010.6
20260905235031 33 55 0.0 0.0 0.00 0.00 0.00 58 1010.7
20260905234526 33 55 0.0 0.0 0.00 0.00 0.00 55 1010.8
20260905234026 33 55 0.0 0.0 0.00 0.00 0.00 55 1010.9
20260905233521 33 55 0.0 0.0 0.00 0.00 0.00 53 1010.8
20260905233021 33 55 0.0 0.0 0.00 0.00 0.00 53 1010.8
20260905232516 34 55 0.0 0.0 0.00 0.00 0.00 52 1010.7
20260905232012 34 55 0.0 0.0 0.00 0.00 0.00 50 1010.6
20260905231507 35 55 0.0 0.0 0.00 0.00 0.00 50 1010.6
20260905231004 35 55 0.0 0.0 0.00 0.00 0.00 49 1010.5
20260905230502 36 55 0.0 0.0 0.00 0.00 0.00 49 1010.7
20260905230000 36 55 0.0 0.0 0.00 0.00 0.00 46 1010.4
20260905225456 37 55 0.0 0.0 0.00 0.00 0.00 45 1010.6
20260905224951 37 55 0.0 0.0 0.00 0.00 0.00 43 1010.5
20260905224446 37 55 0.0 0.0 0.00 0.00 0.00 43 1010.6
20260905223945 37 55 0.0 0.0 0.00 0.00 0.00 43 1010.5
20260905223443 38 56 0.0 0.0 0.00 0.00 0.00 45 1010.7
20260905222938 38 52 0.0 0.0 0.00 0.00 0.00 43 1010.6
20260905222438 38 52 0.0 0.0 0.00 0.00 0.00 40 1010.7
20260905221933 38 52 0.0 0.0 0.00 0.00 0.00 40 1010.7
20260905221430 38 64 0.0 0.0 0.00 0.00 0.00 38 1010.7
20260905220926 38 59 0.0 0.0 0.00 0.00 0.00 44 1010.7
20260905220422 38 55 0.0 0.0 0.00 0.00 0.00 42 1010.8
20260905215921 38 79 1.6 1.6 0.00 0.00 0.00 42 1010.7
20260905215416 38 55 0.0 0.0 0.00 0.00 0.00 41 1010.6
20260905214913 39 48 1.6 1.6 0.00 0.00 0.00 41 1010.8
20260905214408 39 56 0.0 0.0 0.00 0.00 0.00 41 1010.7
20260905213908 39 49 0.0 0.0 0.00 0.00 0.00 39 1010.8
20260905213404 38 47 0.0 0.0 0.00 0.00 0.00 39 1010.7
20260905212859 38 56 0.0 0.0 0.00 0.00 0.00 43 1010.8
20260905212354 38 58 0.0 1.6 0.00 0.00 0.00 41 1010.7
20260905211853 40 59 1.6 1.6 0.00 0.00 0.00 42 1010.9
20260905211349 39 46 0.0 0.0 0.00 0.00 0.00 37 1010.9
20260905210846 38 60 0.0 0.0 0.00 0.00 0.00 41 1011.0
20260905210345 38 43 1.6 1.6 0.00 0.00 0.00 38 1010.9
20260905205844 38 46 0.0 0.0 0.00 0.00 0.00 39 1010.9
20260905205339 38 66 1.6 1.6 0.00 0.00 0.00 44 1010.9
20260905204838 39 58 0.0 0.0 0.00 0.00 0.00 39 1011.0
20260905204335 38 69 0.0 1.6 0.00 0.00 0.00 39 1010.9
20260905203833 38 73 1.6 1.6 0.00 0.00 0.00 40 1011.1
20260905203329 37 46 0.0 0.0 0.00 0.00 0.00 44 1011.1
20260905202824 37 62 0.0 0.0 0.00 0.00 0.00 43 1011.4
20260905202314 36 51 0.0 1.6 0.00 0.00 0.00 49 1011.4